VK5KX Weather Reports


time (UTC)temp
C
wind
direction
speed
KPH
gust
KPH
rain 1hr
cm
rain 24hr
cm
rain mn
cm
humidity
%
barometer
mb
20260509013035 16 146 1.6 4.8 0.00 0.05 0.00 85 1030.7
20260509011533 16 209 1.6 4.8 0.00 0.05 0.00 88 1030.7
20260509010035 15 138 0.0 4.8 0.00 0.05 0.00 90 1030.8
20260509004525 15 164 1.6 4.8 0.00 0.05 0.00 92 1030.9
20260509003023 15 52 0.0 4.8 0.00 0.05 0.00 94 1030.9
20260509001522 14 50 0.0 0.0 0.00 0.05 0.00 95 1030.9
20260509000019 13 125 0.0 0.0 0.00 0.05 0.00 95 1031.1
20260508234516 13 129 0.0 0.0 0.00 0.05 0.00 95 1031.1
20260508233013 12 129 0.0 0.0 0.00 0.05 0.00 96 1031.1
20260508231509 12 129 0.0 0.0 0.00 0.05 0.00 95 1031.0
20260508230007 11 129 0.0 0.0 0.00 0.05 0.00 96 1030.9
20260508224512 11 129 0.0 0.0 0.00 0.05 0.00 95 1030.7
20260508223002 10 129 0.0 0.0 0.00 0.05 0.00 95 1030.6
20260508221504 10 129 0.0 0.0 0.00 0.05 0.00 95 1030.6
20260508220104 10 129 0.0 0.0 0.00 0.05 0.00 94 1030.5
20260508214559 10 129 0.0 0.0 0.00 0.05 0.00 94 1030.4
20260508213058 10 129 0.0 0.0 0.00 0.05 0.00 94 1030.3
20260508211555 10 129 0.0 0.0 0.00 0.05 0.00 94 1030.1
20260508210055 10 129 0.0 0.0 0.00 0.05 0.00 94 1030.1
20260508204554 11 129 0.0 0.0 0.00 0.05 0.00 94 1030.0
20260508203051 11 129 0.0 0.0 0.00 0.05 0.00 94 1029.9
20260508201551 11 129 0.0 0.0 0.00 0.05 0.00 94 1029.7
20260508200051 11 129 0.0 0.0 0.00 0.05 0.00 95 1029.6
20260508194603 11 129 0.0 0.0 0.00 0.05 0.00 95 1029.5
20260508193105 10 129 0.0 0.0 0.00 0.05 0.00 94 1029.5
20260508191557 10 129 0.0 0.0 0.00 0.05 0.00 94 1029.3
20260508190107 10 129 0.0 0.0 0.00 0.05 0.00 94 1029.3
20260508184546 10 129 0.0 0.0 0.00 0.05 0.00 94 1029.2
20260508183045 9 129 0.0 0.0 0.00 0.05 0.00 93 1029.3
20260508181548 9 129 0.0 0.0 0.00 0.05 0.00 93 1029.4
20260508180043 9 129 0.0 0.0 0.00 0.05 0.00 93 1029.5
20260508174543 9 129 0.0 0.0 0.00 0.05 0.00 93 1029.5
20260508173040 9 129 0.0 0.0 0.00 0.05 0.00 93 1029.7
20260508171543 10 129 0.0 0.0 0.00 0.05 0.00 93 1029.6
20260508170037 10 129 0.0 0.0 0.00 0.05 0.00 93 1029.6
20260508164536 10 129 0.0 0.0 0.00 0.05 0.00 92 1029.5
20260508163041 10 129 0.0 0.0 0.00 0.05 0.00 92 1029.5
20260508161546 10 129 0.0 0.0 0.00 0.05 0.00 92 1029.5
20260508160031 10 129 0.0 0.0 0.00 0.05 0.00 92 1029.6
20260508154530 10 129 0.0 0.0 0.00 0.05 0.00 92 1029.6
20260508153048 10 129 0.0 0.0 0.00 0.05 0.00 92 1029.6
20260508151526 10 129 0.0 0.0 0.00 0.05 0.00 91 1029.7
20260508150024 11 129 0.0 0.0 0.00 0.05 0.00 91 1029.7
20260508144522 11 129 0.0 0.0 0.00 0.05 0.00 91 1029.8
20260508143020 11 129 0.0 0.0 0.00 0.05 0.00 91 1029.8
20260508141519 11 129 0.0 0.0 0.00 0.05 0.05 90 1029.8
20260508140018 11 129 0.0 0.0 0.00 0.05 0.05 90 1029.9
20260508134516 11 129 0.0 0.0 0.00 0.05 0.05 89 1030.1
20260508133015 11 129 0.0 0.0 0.00 0.05 0.05 90 1030.1
20260508131514 12 129 0.0 0.0 0.00 0.05 0.05 89 1030.2
20260508130013 12 129 0.0 0.0 0.00 0.05 0.05 89 1030.2
20260508124514 12 129 0.0 0.0 0.00 0.05 0.05 88 1030.3
20260508123020 12 129 0.0 0.0 0.00 0.05 0.05 87 1030.4
20260508121509 12 129 0.0 0.0 0.00 0.05 0.05 87 1030.3
20260508120008 12 129 0.0 0.0 0.00 0.05 0.05 86 1030.3
20260508114506 13 129 0.0 0.0 0.00 0.05 0.05 86 1030.3
20260508113005 13 129 0.0 0.0 0.00 0.05 0.05 85 1030.2
20260508111505 13 129 0.0 0.0 0.00 0.05 0.05 84 1030.1
20260508110006 13 129 0.0 0.0 0.00 0.05 0.05 84 1030.0
20260508104502 13 129 0.0 6.4 0.00 0.05 0.05 84 1029.9
20260508103003 14 123 3.2 6.4 0.00 0.05 0.05 84 1030.0
20260508101501 14 113 0.0 1.6 0.00 0.05 0.05 84 1030.0
20260508100000 15 126 0.0 3.2 0.00 0.05 0.05 84 1029.9
20260508094600 15 126 0.0 0.0 0.00 0.05 0.05 84 1029.9
20260508093059 15 126 1.6 4.8 0.00 0.05 0.05 84 1029.8
20260508091614 15 138 0.0 6.4 0.00 0.05 0.05 84 1029.7
20260508090100 15 111 1.6 6.4 0.00 0.05 0.05 84 1029.8
20260508084558 15 151 1.6 6.4 0.00 0.05 0.05 84 1029.6
20260508083058 15 125 1.6 6.4 0.00 0.05 0.05 82 1029.5
20260508081613 15 147 1.6 9.7 0.00 0.05 0.05 82 1029.4
20260508080101 16 182 3.2 9.7 0.00 0.05 0.05 81 1029.3
20260508074607 16 125 4.8 9.7 0.00 0.05 0.05 79 1029.2
20260508073056 16 156 3.2 11.3 0.00 0.05 0.05 78 1029.2
20260508071556 16 123 3.2 12.9 0.00 0.05 0.05 78 1029.0
20260508070056 16 118 4.8 14.5 0.00 0.05 0.05 79 1029.1
20260508064555 17 157 3.2 11.3 0.00 0.05 0.05 78 1029.1
20260508063057 17 104 3.2 14.5 0.00 0.05 0.05 77 1029.0
20260508061553 17 121 4.8 12.9 0.03 0.05 0.05 76 1029.1
20260508060106 17 127 4.8 14.5 0.03 0.05 0.05 74 1029.0
20260508054637 17 77 4.8 12.9 0.03 0.05 0.05 75 1029.0
20260508053053 17 130 4.8 12.9 0.03 0.05 0.05 74 1029.0
20260508051553 17 158 3.2 9.7 0.00 0.05 0.05 74 1029.1
20260508050049 17 122 3.2 11.3 0.00 0.05 0.05 75 1029.1
20260508044545 17 138 4.8 14.5 0.00 0.05 0.05 81 1029.2
20260508043042 16 126 3.2 12.9 0.03 0.05 0.05 85 1029.4
20260508041543 16 135 3.2 12.9 0.03 0.05 0.05 90 1029.5
20260508040038 16 123 3.2 11.3 0.03 0.05 0.05 88 1029.7
20260508034546 16 124 3.2 12.9 0.03 0.05 0.05 88 1029.8
20260508033036 16 110 3.2 11.3 0.00 0.03 0.03 89 1030.0
20260508031536 16 164 4.8 11.3 0.00 0.03 0.03 89 1030.1
20260508030034 16 134 3.2 9.7 0.00 0.03 0.03 88 1030.3
20260508024533 16 131 4.8 11.3 0.03 0.03 0.03 86 1030.6
20260508023031 16 141 3.2 14.5 0.03 0.03 0.03 88 1030.7
20260508021528 16 123 4.8 12.9 0.03 0.03 0.03 87 1031.0
20260508020028 16 164 1.6 6.4 0.03 0.03 0.03 88 1031.2
20260508014536 16 129 3.2 9.7 0.00 0.00 0.00 87 1031.2